Вернуться в каталог

STARLINK-34512

АктивенСвязьVLEO
NORAD 64419·PAYLOAD·🇺🇸 United States

Запущен Jun 17, 2025 с Vandenberg Space Force Base

Loading…

Ближайшие Пролёты (ближайшие 24 часа)

TLE

СвежийSource: CelesTrak SupGP

Эпоха: Sep 14, 2026, 21:06 UTC

1 64419C 25129H   26257.87965278 -.00015202  00000+0 -52919-3 0  2574
2 64419  69.9989 315.6002 0003480 271.2523  37.9435 15.29563690    18

Отслеживайте STARLINK-34512 в реальном времени с AllMySat

Download on the App Store